KD8BMB Weather Reports


time (UTC)temp
F
wind
direction
speed
knots
gust
knots
rain 1hr
in
rain 24hr
in
rain mn
in
humidity
%
barometer
mb
20260504004215 55 267 3.5 5.2 0.00 0.00 0.00 64 1007.5
20260504003712 55 287 6.1 7.8 0.00 0.00 0.00 64 1007.5
20260504003208 55 54 0.9 1.7 0.00 0.00 0.00 64 1007.6
20260504002705 55 264 1.7 4.3 0.00 0.00 0.00 63 1007.6
20260504002203 55 257 4.3 5.2 0.00 0.00 0.00 62 1007.6
20260504001701 55 267 4.3 7.8 0.00 0.00 0.00 61 1007.6
20260504001157 56 214 1.7 2.6 0.00 0.00 0.00 60 1007.5
20260504000654 56 261 2.6 4.3 0.00 0.00 0.00 59 1007.6
20260504000151 57 197 8.7 11.3 0.00 0.00 0.00 58 1007.6
20260503235649 57 153 2.6 4.3 0.00 0.00 0.00 58 1007.5
20260503235146 58 228 6.1 7.0 0.00 0.00 0.00 57 1007.3
20260503234644 58 306 4.3 5.2 0.00 0.00 0.00 56 1007.5
20260503234142 58 228 7.8 13.0 0.00 0.00 0.00 56 1007.4
20260503233638 58 194 3.5 5.2 0.00 0.00 0.00 55 1007.3
20260503233134 58 172 2.6 2.6 0.00 0.00 0.00 55 1007.3
20260503232631 59 291 4.3 5.2 0.00 0.00 0.00 54 1007.2
20260503232129 59 194 6.1 7.8 0.00 0.00 0.00 53 1007.4
20260503231627 59 240 3.5 5.2 0.00 0.00 0.00 53 1007.4
20260503231123 59 234 7.0 11.3 0.00 0.00 0.00 53 1007.4
20260503230620 59 200 0.9 2.6 0.00 0.00 0.00 54 1007.4
20260503230117 59 215 3.5 5.2 0.00 0.00 0.00 54 1007.5
20260503225614 59 308 3.5 4.3 0.00 0.00 0.00 55 1007.6
20260503225114 59 249 1.7 2.6 0.00 0.00 0.00 55 1007.3
20260503224611 59 288 2.6 2.6 0.00 0.00 0.00 53 1007.5
20260503224109 59 211 2.6 4.3 0.00 0.00 0.00 52 1007.4
20260503223607 60 265 3.5 4.3 0.00 0.00 0.00 51 1007.6
20260503223103 60 323 7.8 13.0 0.00 0.00 0.00 50 1007.6
20260503222601 60 292 5.2 7.8 0.00 0.00 0.00 50 1007.7
20260503222058 60 289 7.0 8.7 0.00 0.00 0.00 49 1007.7
20260503221556 60 273 8.7 13.0 0.00 0.00 0.00 48 1007.8
20260503221053 60 223 2.6 2.6 0.00 0.00 0.00 48 1007.6
20260503220549 61 246 5.2 7.0 0.00 0.00 0.00 47 1007.6
20260503220047 61 247 6.1 7.8 0.00 0.00 0.00 47 1007.9
20260503215544 61 268 4.3 6.1 0.00 0.00 0.00 48 1007.7
20260503215040 61 226 2.6 4.3 0.00 0.00 0.00 48 1007.8
20260503214539 61 210 5.2 7.0 0.00 0.00 0.00 48 1007.6
20260503214035 62 262 4.3 5.2 0.00 0.00 0.00 47 1007.6
20260503213533 62 220 0.9 0.9 0.00 0.00 0.00 47 1007.4
20260503213030 62 238 6.1 7.0 0.00 0.00 0.00 47 1007.4
20260503212527 62 119 3.5 4.3 0.00 0.00 0.00 47 1007.4
20260503212025 62 259 9.6 12.2 0.00 0.00 0.00 45 1007.7
20260503211522 63 229 6.1 7.8 0.00 0.00 0.00 46 1007.6
20260503211017 63 243 4.3 7.0 0.00 0.00 0.00 45 1007.3
20260503210514 63 225 3.5 5.2 0.00 0.00 0.00 45 1007.7
20260503210010 63 185 3.5 5.2 0.00 0.00 0.00 46 1007.4
20260503205506 62 182 6.1 7.8 0.00 0.00 0.00 45 1007.7
20260503205003 62 231 6.1 7.8 0.00 0.00 0.00 46 1007.7
20260503204500 62 194 7.8 13.0 0.00 0.00 0.00 45 1007.7
20260503203956 62 263 9.6 13.0 0.00 0.00 0.00 44 1007.8
20260503203454 62 253 5.2 6.1 0.00 0.00 0.00 45 1007.6
20260503202950 62 215 7.0 11.3 0.00 0.00 0.00 45 1007.9
20260503202449 62 200 2.6 2.6 0.00 0.00 0.00 46 1007.7
20260503201947 62 260 7.8 9.6 0.00 0.00 0.00 45 1007.8
20260503201444 62 244 2.6 5.2 0.00 0.00 0.00 47 1008.0
20260503200942 62 238 7.0 7.8 0.00 0.00 0.00 45 1008.1
20260503200438 61 231 8.7 13.0 0.00 0.00 0.00 47 1008.0
20260503195935 62 192 1.7 1.7 0.00 0.00 0.00 48 1008.4
20260503195432 62 208 3.5 6.1 0.00 0.00 0.00 46 1008.0
20260503194928 62 185 3.5 4.3 0.00 0.00 0.00 48 1008.5
20260503194425 62 217 5.2 9.6 0.00 0.00 0.00 47 1008.5
20260503193921 61 248 7.8 9.6 0.00 0.00 0.00 46 1008.4
20260503193416 61 252 5.2 7.8 0.00 0.00 0.00 47 1008.6
20260503192912 61 268 9.6 12.2 0.00 0.00 0.00 47 1008.5
20260503192409 62 198 4.3 6.1 0.00 0.00 0.00 47 1008.7
20260503191904 64 276 7.0 8.7 0.00 0.00 0.00 46 1008.8
20260503191403 63 222 5.2 7.0 0.00 0.00 0.00 47 1008.8
20260503190858 62 208 4.3 6.1 0.00 0.00 0.00 48 1008.6
20260503190356 62 243 8.7 13.0 0.00 0.00 0.00 49 1009.0
20260503185852 61 241 9.6 11.3 0.00 0.00 0.00 50 1009.0
20260503185349 61 172 5.2 7.8 0.00 0.00 0.00 50 1009.1
20260503184848 60 322 4.3 7.8 0.00 0.00 0.00 51 1009.1
20260503184345 61 164 7.8 8.7 0.00 0.00 0.00 50 1009.2
20260503183840 61 242 4.3 7.0 0.00 0.00 0.00 50 1009.3
20260503183338 62 277 7.0 9.6 0.00 0.00 0.00 49 1009.1
20260503182835 63 228 4.3 5.2 0.00 0.00 0.00 47 1009.4
20260503182334 62 233 5.2 7.8 0.00 0.00 0.00 47 1009.3
20260503181831 62 258 13.0 20.0 0.00 0.00 0.00 48 1009.4
20260503181328 62 263 11.3 15.6 0.00 0.00 0.00 47 1009.5
20260503180825 62 276 4.3 5.2 0.00 0.00 0.00 46 1009.6
20260503180323 62 244 7.8 9.6 0.00 0.00 0.00 45 1009.7
20260503175819 62 189 4.3 7.8 0.00 0.00 0.00 46 1009.6
20260503175317 61 284 5.2 7.0 0.00 0.00 0.00 46 1010.0
20260503174812 60 233 1.7 1.7 0.00 0.00 0.00 49 1010.0
20260503174311 60 282 4.3 6.1 0.00 0.00 0.00 48 1009.8
20260503173806 60 232 6.1 7.8 0.00 0.00 0.00 48 1010.0
20260503173302 60 224 6.1 7.0 0.00 0.00 0.00 47 1010.1
20260503172759 60 245 8.7 9.6 0.00 0.00 0.00 47 1010.1
20260503172256 60 258 5.2 7.8 0.00 0.00 0.00 48 1010.2
20260503171752 59 285 2.6 2.6 0.00 0.00 0.00 47 1010.3
20260503171249 59 205 0.9 2.6 0.00 0.00 0.00 48 1010.5
20260503170747 60 247 4.3 6.1 0.00 0.00 0.00 48 1010.8
20260503170243 59 272 4.3 7.0 0.00 0.00 0.00 48 1010.7
20260503160205 57 243 3.5 5.2 0.00 0.00 0.00 51 1011.4
20260503150636 53 233 2.6 2.6 0.00 0.00 0.00 53 1011.9
20260503150131 53 268 3.5 6.1 0.00 0.00 0.00 52 1011.8
20260503131025 50 271 3.5 5.2 0.00 0.00 0.00 57 1012.2
20260503130522 50 275 3.5 4.3 0.00 0.00 0.00 58 1012.5
20260503110413 39 264 1.7 1.7 0.00 0.00 0.00 67 1012.5
20260503090258 35 246 0.0 0.0 0.00 0.00 0.00 76 1013.7
20260503081226 33 316 0.0 0.0 0.00 0.00 0.00 80 1014.0
20260503080721 33 310 0.0 0.0 0.00 0.00 0.00 80 1014.0
20260503080219 33 310 0.0 0.0 0.00 0.00 0.00 79 1014.0
20260503072655 35 310 0.0 0.0 0.00 0.00 0.00 75 1014.1
20260503072152 35 282 0.0 0.0 0.00 0.00 0.00 75 1014.0
20260503071649 35 285 0.0 0.0 0.00 0.00 0.00 75 1014.1
20260503071145 36 294 0.0 0.0 0.00 0.00 0.00 75 1014.2
20260503070642 36 295 0.0 0.0 0.00 0.00 0.00 74 1014.4
20260503070140 36 309 0.0 0.0 0.00 0.00 0.00 73 1014.3
20260503060105 38 285 0.0 0.0 0.00 0.00 0.00 67 1015.0
20260503055056 39 239 0.9 0.9 0.00 0.00 0.00 67 1014.7
20260503054552 39 285 0.9 1.7 0.00 0.00 0.00 66 1014.8
20260503054049 39 282 0.0 0.0 0.00 0.00 0.00 66 1015.0
20260503053547 39 197 0.9 0.9 0.00 0.00 0.00 65 1014.9
20260503053045 39 282 0.0 0.0 0.00 0.00 0.00 66 1014.9
20260503052541 39 236 0.9 1.7 0.00 0.00 0.00 65 1015.0
20260503052037 40 250 2.6 2.6 0.00 0.00 0.00 65 1015.1
20260503051533 40 283 0.9 0.9 0.00 0.00 0.00 65 1014.9
20260503051031 40 257 0.9 1.7 0.00 0.00 0.00 64 1015.0
20260503050526 40 283 0.9 0.9 0.00 0.00 0.00 65 1015.1
20260503050024 40 243 2.6 2.6 0.00 0.00 0.00 65 1014.7
20260503045521 40 274 2.6 2.6 0.00 0.00 0.00 65 1015.1
20260503045018 40 282 0.9 0.9 0.00 0.00 0.00 64 1015.1
20260503044515 40 208 1.7 2.6 0.00 0.00 0.00 64 1015.1
20260503044013 40 230 1.7 1.7 0.00 0.00 0.00 65 1015.2
20260503043509 41 265 1.7 1.7 0.00 0.00 0.00 64 1015.1
20260503043005 41 209 0.9 0.9 0.00 0.00 0.00 64 1015.1
20260503042502 41 224 0.9 0.9 0.00 0.00 0.00 64 1015.1
20260503041958 41 231 0.9 0.9 0.00 0.00 0.00 64 1015.0
20260503041455 41 260 0.9 0.9 0.00 0.00 0.00 64 1015.0
20260503040953 41 272 2.6 4.3 0.00 0.00 0.00 64 1015.1
20260503040450 41 275 0.9 1.7 0.00 0.00 0.00 64 1015.0
20260503035947 41 212 1.7 1.7 0.00 0.00 0.00 64 1015.1
20260503035444 41 275 0.9 1.7 0.00 0.00 0.00 63 1015.1
20260503034942 41 254 0.0 0.0 0.00 0.00 0.00 63 1015.1
20260503034439 42 239 1.7 1.7 0.00 0.00 0.00 62 1015.0
20260503033936 42 287 1.7 1.7 0.00 0.00 0.00 63 1014.9
20260503033433 42 272 0.9 0.9 0.00 0.00 0.00 62 1015.1
20260503032931 42 251 2.6 2.6 0.00 0.00 0.00 62 1015.0
20260503032430 42 231 0.9 0.9 0.00 0.00 0.00 62 1014.9
20260503031927 42 247 0.9 0.9 0.00 0.00 0.00 62 1015.1
20260503031424 42 285 0.0 0.0 0.00 0.00 0.00 63 1015.0
20260503030921 42 301 2.6 2.6 0.00 0.00 0.00 64 1015.3
20260503030417 42 290 0.0 0.9 0.00 0.00 0.00 63 1014.8
20260503025914 42 253 0.9 0.9 0.00 0.00 0.00 63 1015.2
20260503025411 42 239 0.0 0.0 0.00 0.00 0.00 64 1015.2
20260503024909 42 224 0.0 0.0 0.00 0.00 0.00 63 1015.2
20260503024405 41 287 0.0 0.9 0.00 0.00 0.00 64 1015.2
20260503023902 41 267 0.0 0.0 0.00 0.00 0.00 65 1015.2
20260503023359 41 303 0.0 0.0 0.00 0.00 0.00 65 1015.1
20260503022856 42 294 0.0 0.0 0.00 0.00 0.00 64 1015.4
20260503022350 42 261 0.0 0.0 0.00 0.00 0.00 63 1015.4
20260503021847 42 276 0.0 0.0 0.00 0.00 0.00 63 1015.3
20260503021343 41 271 0.0 0.0 0.00 0.00 0.00 64 1015.3
20260503020840 42 295 0.0 0.0 0.00 0.00 0.00 63 1015.0
20260503020338 42 279 0.0 0.0 0.00 0.00 0.00 63 1015.1
20260503015834 42 287 0.0 0.0 0.00 0.00 0.00 63 1015.0
20260503015332 42 250 0.0 0.0 0.00 0.00 0.00 62 1015.1
20260503014827 42 291 0.0 0.0 0.00 0.00 0.00 62 1015.0
20260503014325 42 279 0.0 0.0 0.00 0.00 0.00 62 1015.2
20260503013822 42 290 0.0 0.0 0.00 0.00 0.00 61 1015.2
20260503013320 42 288 0.0 0.0 0.00 0.00 0.00 62 1015.1
20260503012817 42 304 0.0 0.0 0.00 0.00 0.00 62 1015.0
20260503012314 42 290 0.0 0.0 0.00 0.00 0.00 62 1015.0
20260503011810 42 287 0.0 0.0 0.00 0.00 0.00 61 1015.1
20260503011308 43 286 0.0 0.0 0.00 0.00 0.00 59 1014.9
20260503010804 43 287 0.0 0.0 0.00 0.00 0.00 58 1015.0
20260503010301 43 287 0.0 0.0 0.00 0.00 0.00 57 1014.9
20260503005758 44 287 0.0 0.0 0.00 0.00 0.00 55 1015.0
20260503005256 44 287 0.0 0.0 0.00 0.00 0.00 53 1014.9
20260503004751 45 294 0.0 0.0 0.00 0.00 0.00 53 1014.6